Regional Weather Roundup
Issued by NWS

Home | Current Version | Previous Version | Text Only | Print | Product List | Glossary Off
Versions: 1 2 3 4 5 6 7 8 9 10 11 12 13 14 15 16 17 18 19 20 21 22 23 24 25 26 27 28 29 30 31 32 33 34 35 36 37 38 39 40 41 42 43 44 45 46 47 48 49 50

227
ASUS45 KSLC 051710
RWRUT

UTAH REGIONAL WEATHER ROUNDUP
NATIONAL WEATHER SERVICE SALT LAKE CITY UT
1100 AM MDT THU MAY 05 2016

UTZ001>011-023>025-051800-

NORTHERN UTAH

CITY           SKY/WX    TMP DP  RH WIND       PRES   REMARKS
BRIGHAM CITY   CLOUDY    67  43  40 N3        29.94F
HILL AFB       PTSUNNY   70  38  31 E14       29.95F
LOGAN          CLOUDY    62  44  51 N3        29.98S
OGDEN          PTSUNNY   73  38  27 S6        29.93F
PROVO AIRPORT  PTSUNNY   77  36  22 SE12G17   29.94F
SALT LAKE CITY PTSUNNY   78  32  18 S8        29.91F
VERNAL         CLOUDY    69  28  21 CALM      30.11S
WENDOVER       PTSUNNY   68  39  34 E13       29.90F
HEBER CITY     PTSUNNY   63  36  36 CALM      30.03F

$$

UTZ012>022-026-027-051800-

SOUTHERN/CENTRAL UTAH

CITY           SKY/WX    TMP DP  RH WIND       PRES   REMARKS
BLANDING       CLOUDY    68  29  23 SE9       30.22F
BRYCE CANYON   PTSUNNY   61  28  28 SE16      30.15S
CEDAR CITY     MOSUNNY   71  27  19 S20G28    29.97F
DELTA          MOSUNNY   70  32  24 SW6       29.94F
HANKSVILLE     PTSUNNY   70  34  26 CALM      30.05F
MILFORD        MOSUNNY   74  29  19 S15G21    29.95F
MOAB/CYNLANDS  CLOUDY    74  29  19 E9        30.03F
PRICE          PTSUNNY   67  28  23 S3        30.12S
ST GEORGE      PTSUNNY   82  27  13 S20       29.88F
KANAB          PTSUNNY   73  30  20 SW10      30.03F

$$

REGIONAL REPORTS     COLORADO/ARIZONA

CITY           SKY/WX    TMP DP  RH WIND       PRES   REMARKS
CRAIG, CO      MOSUNNY   70  31  23 E9        30.16F
GRAND JUNCTION CLOUDY    69  32  25 SE17      30.08F
RIFLE          SUNNY     66  34  30 W3        30.15F
MONTROSE       SUNNY     75  29  18 E10       30.15F
CORTEZ         SUNNY     74  29  19 SE15      30.16F
PAGE, AZ       CLOUDY    72  28  19 W7        29.99F
GRAND CANYON   MOSUNNY   68  28  22 S15G21    30.10F
KINGMAN        PTSUNNY   77  25  14 S15G21    29.89S
FLAGSTAFF      SUNNY     61  25  25 SW12G22   30.14F

$$

REGIONAL REPORTS    NEVADA/IDAHO/WYOMING

CITY           SKY/WX    TMP DP  RH WIND       PRES   REMARKS
LAS VEGAS, NV  CLOUDY    76  34  21 E7        29.78F
ELY            SUNNY     65  26  23 S26G36    29.96F
ELKO           MOSUNNY   68  34  28 VRB3      29.87F
POCATELLO, ID  CLOUDY    70  44  39 NE7       29.95S
BURLEY         PTSUNNY   63  43  48 W8        29.91F
EVANSTON, WY   CLOUDY    67  29  24 VRB6      30.13S
ROCK SPRINGS   CLOUDY    68  30  24 SE7       30.15F
KEMMERER         N/A     64  28  25 E8        30.17S

$$




USA.gov is the U.S. government's official web portal to all federal, state and local government web resources and services.